BM3JAS-9 Weather Reports


Display with metric or nautical units.
time (UTC)temp
F
wind
direction
speed
MPH
gust
MPH
rain 1hr
in
rain 24hr
in
rain mn
in
humidity
%
barometer
mb
20260504222312 70 0 0.0 0.0 0.00 0.00 0.00 76
20260504221312 70 0 0.0 0.0 0.00 0.00 0.00 76
20260504220312 70 0 0.0 0.0 0.00 0.00 0.00 76
20260504215312 70 0 0.0 0.0 0.00 0.00 0.00 76
20260504214312 70 0 0.0 0.0 0.00 0.00 0.00 76
20260504212312 70 0 0.0 0.0 0.00 0.00 0.00 75
20260504211312 70 0 0.0 0.0 0.00 0.00 0.00 75
20260504210312 70 0 0.0 0.0 0.00 0.00 0.00 75
20260504205312 70 0 0.0 0.0 0.00 0.00 0.00 75
20260504204312 69 0 0.0 0.0 0.00 0.00 0.00 74
20260504203312 70 0 0.0 0.0 0.00 0.00 0.00 74
20260504202312 70 0 0.0 0.0 0.00 0.00 0.00 73
20260504201312 70 0 0.0 0.0 0.00 0.00 0.00 73
20260504200312 70 0 0.0 0.0 0.00 0.00 0.00 73
20260504195312 70 0 0.0 0.0 0.00 0.00 0.00 72
20260504193312 70 0 0.0 0.0 0.00 0.00 0.00 72
20260504192312 69 0 0.0 0.0 0.00 0.00 0.00 72
20260504191312 69 0 0.0 0.0 0.00 0.00 0.00 72
20260504190312 69 0 0.0 0.0 0.00 0.00 0.00 73
20260504185312 69 0 0.0 0.0 0.00 0.00 0.00 73
20260504184312 69 0 0.0 0.0 0.00 0.00 0.00 72
20260504183312 69 0 0.0 0.0 0.00 0.00 0.00 72
20260504182312 69 0 0.0 0.0 0.00 0.00 0.00 72
20260504181312 69 0 0.0 0.0 0.00 0.00 0.00 72
20260504180312 69 0 0.0 0.0 0.00 0.00 0.00 72
20260504174312 70 0 0.0 0.0 0.00 0.00 0.00 72
20260504173312 70 0 0.0 0.0 0.00 0.00 0.00 72
20260504172312 70 0 0.0 0.0 0.00 0.00 0.00 72
20260504171312 70 0 0.0 0.0 0.00 0.00 0.00 72
20260504170312 70 0 0.0 0.0 0.00 0.00 0.00 72
20260504150312 71 0 0.0 0.0 0.00 0.00 0.00 71
20260504140312 71 0 0.0 0.0 0.00 0.00 0.00 71
20260504130759 70 0 0.0 0.0 0.00 0.00 0.00 72
20260504081759 77 0 0.0 0.0 0.00 0.00 0.00 60
20260504080759 77 0 0.0 0.0 0.00 0.00 0.00 61
20260504045759 82 0 0.0 0.0 0.00 0.00 0.00 59
20260504044759 83 0 0.0 0.0 0.00 0.00 0.00 60
20260504043800 83 0 0.0 0.0 0.00 0.00 0.00 58
20260504042759 84 0 0.0 0.0 0.00 0.00 0.00 60
20260504041759 83 0 0.0 0.0 0.00 0.00 0.00 61
20260504040759 81 0 0.0 0.0 0.00 0.00 0.00 61
20260504035759 80 0 0.0 0.0 0.00 0.00 0.00 61
20260504034759 80 0 0.0 0.0 0.00 0.00 0.00 59
20260504033759 79 0 0.0 0.0 0.00 0.00 0.00 59
20260504032759 79 0 0.0 0.0 0.00 0.00 0.00 60
20260504030759 78 0 0.0 0.0 0.00 0.00 0.00 62
20260504025759 77 0 0.0 0.0 0.00 0.00 0.00 61
20260504024759 77 0 0.0 0.0 0.00 0.00 0.00 62
20260504023759 78 0 0.0 0.0 0.00 0.00 0.00 63
20260504022759 77 0 0.0 0.0 0.00 0.00 0.00 64
20260504021800 77 0 0.0 0.0 0.00 0.00 0.00 66
20260504020800 76 0 0.0 0.0 0.00 0.00 0.00 67
20260504015800 75 0 0.0 0.0 0.00 0.00 0.00 67
20260504014800 75 0 0.0 0.0 0.00 0.00 0.00 67
20260504013800 75 0 0.0 0.0 0.00 0.00 0.00 66
20260504011800 74 0 0.0 0.0 0.00 0.00 0.00 65
20260504010800 74 0 0.0 0.0 0.00 0.00 0.00 66
20260504005800 74 0 0.0 0.0 0.00 0.00 0.00 66
20260504004800 74 0 0.0 0.0 0.00 0.00 0.00 68
20260504003800 74 0 0.0 0.0 0.00 0.00 0.00 69
20260504002800 74 0 0.0 0.0 0.00 0.00 0.00 70
20260504001759 74 0 0.0 0.0 0.00 0.00 0.00 70
20260504000800 74 0 0.0 0.0 0.00 0.00 0.00 70
20260503235800 74 0 0.0 0.0 0.00 0.00 0.00 70
20260503234800 74 0 0.0 0.0 0.00 0.00 0.00 70
20260503232800 74 0 0.0 0.0 0.00 0.00 0.00 71
20260503231800 74 0 0.0 0.0 0.00 0.00 0.00 71
20260503230800 74 0 0.0 0.0 0.00 0.00 0.00 72
20260503225800 74 0 0.0 0.0 0.00 0.00 0.00 72
20260503224800 74 0 0.0 0.0 0.00 0.00 0.00 72
20260503223800 74 0 0.0 0.0 0.00 0.00 0.00 72